Terminal Aerodrome Forecast
Issued by NWS Blacksburg, VA

Home | Current Version | Previous Version | Text Only | Print | Product List | Glossary On
Versions: 1 2 3 4 5 6 7 8 9 10 11 12 13 14 15 16 17 18 19 20 21 22 23 24 25 26 27 28 29 30 31 32 33 34 35 36 37 38 39 40 41 42
000
FTUS41 KRNK 050531
TAFROA
TAF
KROA 050531Z 0506/0606 VRB03KT P6SM SCT035 BKN250
     FM051100 05004KT P6SM OVC020
     FM051500 09004KT P6SM VCSH OVC035
     FM052000 12006KT 4SM -SHRA BR OVC030
      TEMPO 0520/0524 1SM TSRA BR OVC015CB
     FM060000 09005KT 5SM -SHRA BR OVC025=

USA.gov is the U.S. government's official web portal to all federal, state and local government web resources and services.